Weather Roundup
Issued by NWS

Home | Current Version | Previous Version | Text Only | Print | Product List | Glossary On
Versions: 1 2 3 4 5 6 7 8 9 10 11 12 13 14 15 16 17 18 19 20 21 22 23 24 25 26 27 28 29 30 31 32 33 34 35 36 37 38 39 40 41 42 43 44 45 46 47 48 49 50
000
NZUS93 KARX 020559
HRRWXR

CURRENT HOURLY OBSERVATIONS ACROSS
MUCH OF THE UPPER MISSISSIPPI VALLEY
NATIONAL WEATHER SERVICE LA CROSSE WI
100 AM CDT THU OCT 02 2014


...SOUTHEAST MINNESOTA...


CITY           SKY/WX    TMP DP  RH WIND       PRES   REMARKS
ROCHESTER      FOG       51  50  96 S9        29.82F VSB 3/4
ROCHESTER/MAYO CLOUDY    54  53  97 SE8       29.81F VSB 1/2
WINONA         FOG       54  54 100 CALM      29.84S VSB 1/2
AUSTIN         FOG       52  52 100 SE3       29.82F VSB 3/4
ALBERT LEA     FOG       54  54 100 NW3       29.83S VSB 3/4
DODGE CENTER   PTCLDY    54  54 100 CALM      29.81F FOG
PRESTON        MOCLDY    54  53  96 CALM      29.85S FOG
OWATONNA       MOCLDY    57  55  94 CALM      29.82S FOG
FARIBAULT      MOCLDY    57  57 100 CALM      29.81F FOG
$$

...ELSEWHERE IN MINNESOTA...


CITY           SKY/WX    TMP DP  RH WIND       PRES   REMARKS
MINNEAPOLIS    CLOUDY    57  56  96 E6        29.81F FOG
INTNL FALLS    CLOUDY    55  53  93 S6        29.73S
DULUTH         FOG       52  50  93 SW5       29.83F VSB 1/4
RED WING       PTCLDY    55  54  94 CALM      29.82R FOG
REDWOOD FALLS  PTCLDY    54  54 100 W3        29.83R
MANKATO        PTCLDY    57  54  88 S3        29.81S
WORTHINGTON    CLEAR     54  52  94 N6        29.85R
FAIRMONT       CLOUDY    55  52  88 CALM      29.82S VSB<1/4
$$

...SOUTHWEST WISCONSIN...


CITY           SKY/WX    TMP DP  RH WIND       PRES   REMARKS
LA CROSSE      CLOUDY    61  57  87 CALM      29.84R
PRAIRIE DU CHI CLOUDY    64  58  81 CALM      29.83S
BOSCOBEL       CLOUDY    65  59  81 CALM      29.84S
LONE ROCK      NOT AVBL
PLATTEVILLE    CLOUDY    64  60  90 E6        29.86S
FORT MC COY    CLOUDY    61  57  88 CALM      29.85R
VIROQUA        CLOUDY    63  57  83 SE5       29.85S
WIS DELLS      CLOUDY    61  54  78 S3        29.86S
$$

...ELSEWHERE IN WISCONSIN...


CITY           SKY/WX    TMP DP  RH WIND       PRES   REMARKS
MILWAUKEE      CLOUDY    63  53  70 S9        29.89F
MADISON        CLOUDY    63  54  72 MISG      29.87S
GREEN BAY      CLOUDY    58  55  90 SE6       29.89F
EAU CLAIRE     CLOUDY    54  53  97 NE3       29.84S FOG
BLACK RVR FLS  CLOUDY    58  58 100 CALM      29.84R
MEDFORD        CLOUDY    55  52  92 SE3       29.86S
WAUSAU         CLOUDY    56  52  86 SE6       29.87S
WIS RAPIDS     CLOUDY    57  55  93 SE6       29.87F
MARSHFIELD     CLOUDY    58  54  86 SE6       29.86S
RICE LAKE      CLOUDY    55  54  95 CALM      29.86S FOG
$$

...NORTHEAST IOWA...


CITY           SKY/WX    TMP DP  RH WIND       PRES   REMARKS
DECORAH        CLOUDY    63  61  94 CALM      29.84R
MASON CITY     FOG       50  50 100 CALM      29.84S VSB 1/4
CHARLES CITY   CLOUDY    61  61 100 SE6       29.84F FOG
OELWEIN        CLOUDY    64  61  88 CALM      29.84S
$$

...ELSEWHERE IN IOWA...


CITY           SKY/WX    TMP DP  RH WIND       PRES   REMARKS
DES MOINES     FOG       63  62  97 E5        29.79R VSB 1/8
IOWA CITY      CLOUDY    65  64  97 N3        29.83F
FORT DODGE     CLOUDY    57  55  94 E5        29.81F VSB 1/4
$$

...NORTHERN ILLINOIS...


CITY           SKY/WX    TMP DP  RH WIND       PRES   REMARKS
CHICAGO-OHARE  CLOUDY    66  53  63 S8        29.89R
CHICAGO-MIDWAY NOT AVBL
MOLINE         CLOUDY    62  59  90 E5        29.80F FOG
ROCKFORD       CLOUDY    64  55  72 SE6       29.88F
PEORIA         CLOUDY    70  64  81 S13G23    29.84F
$$

NOTE: "FAIR" INDICATES FEW OR NO CLOUDS BELOW 12,000 FEET WITH NO
SIGNIFICANT WEATHER AND/OR OBSTRUCTIONS TO VISIBILITY. WIND
SPEEDS ARE IN MILES-PER-HOUR.



USA.gov is the U.S. government's official web portal to all federal, state and local government web resources and services.